When you browse on this site, cookies collect data to enhance your experience and personalize the content and advertising you see.
Visit our Privacy Policy to learn more. By continuing to use the site, you agree to this use of cookies and data.
  • In United Kingdom
  • List of Countries
  • For 7 days
  • Water Temperature
  • Weather Map
  • Weather Widgets
  • user-avatar
    Login

    Hourly Weather Kuytun

    Today, 24 August, Saturday

    Time Temperature Precipitation Wind Pressure Humidity
    00:00 +16°C° 0.8 mm 5 mps 706 mmHg 89%
    01:00 +16°C° 0 mm 6 mps 706 mmHg 93%
    02:00 +15°C° 0.7 mm 5 mps 707 mmHg 93%
    03:00 +14°C° 0.7 mm 4 mps 707 mmHg 93%
    04:00 +14°C° 0.7 mm 3 mps 708 mmHg 94%
    05:00 +14°C° 0 mm 4 mps 708 mmHg 92%
    06:00 +13°C° 0 mm 4 mps 708 mmHg 90%
    07:00 +13°C° 0 mm 4 mps 709 mmHg 89%
    08:00 +13°C° 0.4 mm 4 mps 709 mmHg 89%
    09:00 +13°C° 0.4 mm 4 mps 710 mmHg 89%
    10:00 +13°C° 0.4 mm 5 mps 710 mmHg 88%
    11:00 +13°C° 0.5 mm 4 mps 710 mmHg 86%
    12:00 +13°C° 0.5 mm 3 mps 711 mmHg 84%
    13:00 +14°C° 0.5 mm 3 mps 711 mmHg 82%
    14:00 +16°C° 0 mm 2 mps 711 mmHg 76%
    15:00 +17°C° 0 mm 2 mps 711 mmHg 70%
    16:00 +18°C° 0 mm 2 mps 711 mmHg 64%
    17:00 +18°C° 0 mm 1 mps 711 mmHg 69%
    18:00 +16°C° 0 mm 1 mps 711 mmHg 73%
    19:00 +14°C° 0 mm 0 mps 711 mmHg 78%
    20:00 +14°C° 0 mm 1 mps 711 mmHg 82%
    21:00 +13°C° 0 mm 1 mps 711 mmHg 85%
    22:00 +12°C° 0 mm 1 mps 711 mmHg 89%
    23:00 +12°C° 0 mm 1 mps 711 mmHg 89%

    Tomorrow, 25 August, Sunday

    Time Temperature Precipitation Wind Pressure Humidity
    00:00 +12°C° 0 mm 1 mps 711 mmHg 90%
    01:00 +11°C° 0 mm 1 mps 711 mmHg 90%
    02:00 +11°C° 0 mm 1 mps 711 mmHg 91%
    03:00 +10°C° 0 mm 1 mps 711 mmHg 91%
    04:00 +9°C° 0 mm 2 mps 711 mmHg 92%
    05:00 +10°C° 0 mm 1 mps 711 mmHg 88%
    06:00 +11°C° 0 mm 1 mps 712 mmHg 84%
    07:00 +12°C° 0 mm 1 mps 712 mmHg 80%
    08:00 +13°C° 0 mm 1 mps 712 mmHg 78%
    09:00 +13°C° 0 mm 2 mps 712 mmHg 76%
    10:00 +13°C° 0 mm 3 mps 712 mmHg 74%
    11:00 +12°C° 0.3 mm 4 mps 712 mmHg 79%
    12:00 +12°C° 0.3 mm 4 mps 712 mmHg 85%
    13:00 +10°C° 0.3 mm 5 mps 712 mmHg 90%
    14:00 +12°C° 0.1 mm 5 mps 712 mmHg 88%
    15:00 +13°C° 0.1 mm 5 mps 712 mmHg 85%
    16:00 +14°C° 0.1 mm 6 mps 713 mmHg 82%
    17:00 +14°C° 0.2 mm 5 mps 713 mmHg 84%
    18:00 +13°C° 0.2 mm 4 mps 713 mmHg 87%
    19:00 +12°C° 0.2 mm 3 mps 713 mmHg 89%
    20:00 +12°C° 0 mm 3 mps 713 mmHg 91%
    21:00 +11°C° 0 mm 3 mps 714 mmHg 93%
    22:00 +10°C° 0 mm 2 mps 714 mmHg 95%
    23:00 +10°C° 0 mm 2 mps 714 mmHg 95%

    Day after tomorrow, 26 August, Monday

    Time Temperature Precipitation Wind Pressure Humidity
    00:00 +10°C° 0 mm 2 mps 714 mmHg 95%
    01:00 +10°C° 0 mm 2 mps 714 mmHg 95%
    02:00 +10°C° 0.5 mm 2 mps 714 mmHg 96%
    03:00 +10°C° 0.5 mm 2 mps 714 mmHg 96%
    04:00 +10°C° 0.5 mm 2 mps 714 mmHg 97%
    05:00 +12°C° 0.2 mm 2 mps 715 mmHg 95%
    06:00 +12°C° 0.2 mm 2 mps 715 mmHg 93%
    07:00 +12°C° 0.2 mm 3 mps 715 mmHg 92%
    08:00 +13°C° 0.2 mm 3 mps 715 mmHg 87%
    09:00 +14°C° 0.2 mm 3 mps 716 mmHg 83%
    10:00 +17°C° 0.2 mm 4 mps 716 mmHg 78%
    11:00 +17°C° 0.5 mm 4 mps 716 mmHg 75%
    12:00 +18°C° 0.5 mm 4 mps 716 mmHg 72%
    13:00 +19°C° 0.5 mm 4 mps 716 mmHg 69%
    14:00 +19°C° 0.2 mm 3 mps 716 mmHg 67%
    15:00 +19°C° 0.2 mm 3 mps 716 mmHg 66%
    16:00 +19°C° 0.2 mm 3 mps 716 mmHg 64%
    17:00 +18°C° 0 mm 2 mps 716 mmHg 69%
    18:00 +16°C° 0 mm 1 mps 716 mmHg 74%
    19:00 +15°C° 0 mm 1 mps 716 mmHg 79%
    20:00 +14°C° 0 mm 1 mps 717 mmHg 80%
    21:00 +12°C° 0 mm 1 mps 717 mmHg 82%
    22:00 +11°C° 0 mm 1 mps 717 mmHg 83%
    23:00 +11°C° 0 mm 1 mps 717 mmHg 82%

    27 August, Tuesday

    Time Temperature Precipitation Wind Pressure Humidity
    00:00 +10°C° 0 mm 1 mps 717 mmHg 81%
    01:00 +10°C° 0 mm 1 mps 717 mmHg 80%
    02:00 +10°C° 0 mm 1 mps 717 mmHg 80%
    03:00 +10°C° 0 mm 1 mps 717 mmHg 81%
    04:00 +10°C° 0 mm 1 mps 716 mmHg 82%
    05:00 +10°C° 0 mm 1 mps 716 mmHg 81%
    06:00 +10°C° 0 mm 2 mps 717 mmHg 80%
    07:00 +10°C° 0 mm 2 mps 717 mmHg 79%
    08:00 +13°C° 0 mm 2 mps 717 mmHg 74%
    09:00 +14°C° 0 mm 3 mps 716 mmHg 69%
    10:00 +17°C° 0 mm 3 mps 716 mmHg 65%
    11:00 +19°C° 0 mm 3 mps 716 mmHg 62%
    12:00 +20°C° 0 mm 3 mps 716 mmHg 60%
    13:00 +21°C° 0 mm 4 mps 716 mmHg 57%
    14:00 +21°C° 0 mm 4 mps 715 mmHg 58%
    15:00 +21°C° 0 mm 4 mps 715 mmHg 58%
    16:00 +22°C° 0 mm 4 mps 715 mmHg 59%
    17:00 +20°C° 0 mm 3 mps 715 mmHg 65%
    18:00 +18°C° 0 mm 3 mps 714 mmHg 71%
    19:00 +16°C° 0 mm 2 mps 714 mmHg 77%
    20:00 +15°C° 0 mm 2 mps 714 mmHg 78%
    21:00 +14°C° 0 mm 2 mps 714 mmHg 79%
    22:00 +13°C° 0 mm 2 mps 714 mmHg 80%
    23:00 +13°C° 0 mm 2 mps 714 mmHg 80%

    28 August, Wednesday

    Time Temperature Precipitation Wind Pressure Humidity
    00:00 +13°C° 0 mm 2 mps 713 mmHg 80%
    01:00 +12°C° 0 mm 2 mps 713 mmHg 80%
    02:00 +11°C° 0 mm 3 mps 713 mmHg 79%
    03:00 +10°C° 0 mm 3 mps 713 mmHg 79%
    04:00 +10°C° 0 mm 3 mps 712 mmHg 79%
    05:00 +11°C° 0 mm 3 mps 713 mmHg 77%
    06:00 +11°C° 0 mm 4 mps 713 mmHg 75%
    07:00 +12°C° 0 mm 4 mps 713 mmHg 73%
    08:00 +14°C° 0 mm 4 mps 713 mmHg 68%
    09:00 +16°C° 0 mm 5 mps 712 mmHg 63%
    10:00 +19°C° 0 mm 5 mps 712 mmHg 57%
    11:00 +20°C° 0 mm 5 mps 712 mmHg 56%
    12:00 +22°C° 0 mm 5 mps 712 mmHg 54%
    13:00 +23°C° 0 mm 4 mps 712 mmHg 52%
    14:00 +25°C° 0 mm 4 mps 712 mmHg 53%
    15:00 +25°C° 0 mm 4 mps 712 mmHg 54%
    16:00 +25°C° 0 mm 3 mps 712 mmHg 55%
    17:00 +22°C° 0 mm 3 mps 712 mmHg 63%
    18:00 +21°C° 0 mm 2 mps 712 mmHg 70%
    19:00 +19°C° 0 mm 2 mps 712 mmHg 77%
    20:00 +18°C° 0 mm 2 mps 712 mmHg 81%
    21:00 +17°C° 0 mm 2 mps 712 mmHg 85%
    22:00 +16°C° 0 mm 2 mps 713 mmHg 90%
    23:00 +16°C° 0.1 mm 2 mps 713 mmHg 91%

    29 August, Thursday

    Time Temperature Precipitation Wind Pressure Humidity
    00:00 +16°C° 0.1 mm 2 mps 714 mmHg 92%
    01:00 +16°C° 0.1 mm 2 mps 714 mmHg 94%
    02:00 +15°C° 0 mm 2 mps 714 mmHg 94%
    03:00 +15°C° 0 mm 2 mps 714 mmHg 95%
    04:00 +14°C° 0 mm 3 mps 715 mmHg 96%
    05:00 +15°C° 0.1 mm 2 mps 715 mmHg 95%
    06:00 +15°C° 0.1 mm 2 mps 715 mmHg 94%
    07:00 +15°C° 0.1 mm 1 mps 715 mmHg 94%
    08:00 +16°C° 0.1 mm 1 mps 715 mmHg 89%
    09:00 +18°C° 0.1 mm 1 mps 716 mmHg 83%
    10:00 +18°C° 0.1 mm 1 mps 716 mmHg 78%
    11:00 +19°C° 0 mm 1 mps 715 mmHg 74%
    12:00 +20°C° 0 mm 1 mps 715 mmHg 69%
    13:00 +21°C° 0 mm 1 mps 715 mmHg 64%
    14:00 +21°C° 0 mm 1 mps 715 mmHg 64%
    15:00 +21°C° 0 mm 1 mps 715 mmHg 64%
    16:00 +21°C° 0 mm 1 mps 714 mmHg 64%
    17:00 +20°C° 0 mm 1 mps 714 mmHg 69%
    18:00 +18°C° 0 mm 1 mps 714 mmHg 74%
    19:00 +15°C° 0 mm 0 mps 714 mmHg 80%
    20:00 +14°C° 0 mm 0 mps 714 mmHg 82%
    21:00 +14°C° 0 mm 1 mps 713 mmHg 84%
    22:00 +14°C° 0 mm 1 mps 713 mmHg 86%
    23:00 +13°C° 0 mm 1 mps 713 mmHg 86%
    Show more